AFL239 USTR-USMM

Flight info

Callsign AFL239
Flight time N/A
Altitude 37000
Route LAKED1R LAKED L165 LUGIK T827 RIKBI RIKBI3B
Aircraft A20N/M-SDE2E3FGHIRWXY/LB1

Departure

Time 2026-04-29 17:48
Airport Roshchino International Airport (USTR)

Arrival

Time N/A
Airport Nadym Airport (USMM)
Time Latitude Longitude Altitude Speed Heading
2026-04-29 17:37 57.17905 65.35040 384 ft 0 kts 42°
2026-04-29 17:40 57.17897 65.35027 386 ft 2 kts 42°
2026-04-29 17:40 57.17887 65.35010 386 ft 1 kts 42°
2026-04-29 17:40 57.17880 65.34998 386 ft 2 kts 15°
2026-04-29 17:41 57.17865 65.35000 386 ft 2 kts 329°
2026-04-29 17:41 57.17859 65.35008 386 ft 1 kts 306°
2026-04-29 17:41 57.17856 65.35015 386 ft 0 kts 313°
2026-04-29 17:42 57.17858 65.35010 386 ft 1 kts 313°
2026-04-29 17:43 57.17867 65.34992 386 ft 2 kts 314°
2026-04-29 17:43 57.17888 65.34954 386 ft 5 kts 316°
2026-04-29 17:43 57.17924 65.34891 386 ft 8 kts 315°
2026-04-29 17:43 57.17975 65.34796 386 ft 11 kts 314°
2026-04-29 17:44 57.18039 65.34675 386 ft 14 kts 314°
2026-04-29 17:44 57.18115 65.34532 386 ft 16 kts 314°
2026-04-29 17:44 57.18202 65.34373 386 ft 18 kts 315°
2026-04-29 17:44 57.18294 65.34199 386 ft 19 kts 313°
2026-04-29 17:45 57.18395 65.34014 386 ft 21 kts 314°
2026-04-29 17:45 57.18501 65.33816 386 ft 22 kts 315°
2026-04-29 17:45 57.18607 65.33617 386 ft 20 kts 313°
2026-04-29 17:45 57.18614 65.33366 386 ft 21 kts 239°
2026-04-29 17:46 57.18536 65.33196 386 ft 15 kts 228°
2026-04-29 17:46 57.18479 65.33017 386 ft 17 kts 263°
2026-04-29 17:46 57.18473 65.32787 386 ft 18 kts 267°
2026-04-29 17:46 57.18469 65.32537 386 ft 20 kts 268°
2026-04-29 17:47 57.18464 65.32274 386 ft 21 kts 270°
2026-04-29 17:47 57.18544 65.32053 386 ft 20 kts 316°
2026-04-29 17:47 57.18653 65.31873 386 ft 21 kts 317°
2026-04-29 17:47 57.18659 65.31628 386 ft 21 kts 234°
2026-04-29 17:48 57.18456 65.31210 386 ft 79 kts 227°
2026-04-29 17:48 57.17934 65.30154 387 ft 142 kts 227°
2026-04-29 17:48 57.17174 65.28616 616 ft 173 kts 229°
2026-04-29 17:48 57.16406 65.26987 1464 ft 166 kts 238°
2026-04-29 17:49 57.16190 65.25084 2295 ft 158 kts 282°
2026-04-29 17:49 57.16757 65.23303 2878 ft 173 kts 315°
2026-04-29 17:49 57.17910 65.22383 3350 ft 200 kts 352°
2026-04-29 17:49 57.19441 65.23007 3822 ft 230 kts 17°
2026-04-29 17:50 57.22697 65.25012 4987 ft 265 kts 14°
2026-04-29 17:50 57.26263 65.27080 6534 ft 283 kts 14°
2026-04-29 17:50 57.29839 65.29173 8221 ft 292 kts 13°
2026-04-29 17:50 57.33676 65.31390 9863 ft 301 kts 13°
2026-04-29 17:51 57.37635 65.33682 11130 ft 319 kts 13°
2026-04-29 17:51 57.41942 65.36208 12456 ft 334 kts 13°
2026-04-29 17:51 57.46307 65.38777 13755 ft 347 kts 13°
2026-04-29 17:51 57.51011 65.41555 15075 ft 361 kts 13°
2026-04-29 17:52 57.55804 65.44390 16430 ft 372 kts 13°
2026-04-29 17:52 57.59092 65.46328 17312 ft 378 kts 12°
2026-04-29 17:52 57.65953 65.49467 19040 ft 388 kts
2026-04-29 17:52 57.71372 65.51412 20032 ft 405 kts
2026-04-29 17:53 57.76889 65.53442 21223 ft 414 kts
2026-04-29 17:53 57.82594 65.55566 22368 ft 423 kts
2026-04-29 17:53 57.88303 65.57706 23479 ft 431 kts
2026-04-29 17:53 57.94104 65.59889 24697 ft 434 kts
2026-04-29 17:54 58.00007 65.61834 25738 ft 437 kts 359°
2026-04-29 17:54 58.06088 65.62962 26719 ft 443 kts 356°
2026-04-29 17:54 58.12154 65.63992 27643 ft 449 kts 356°
2026-04-29 17:54 58.18397 65.65084 28525 ft 454 kts 357°
2026-04-29 17:55 58.24542 65.66173 29282 ft 461 kts 358°
2026-04-29 17:55 58.30020 65.67161 29892 ft 467 kts 357°
2026-04-29 17:55 58.36237 65.68293 30594 ft 473 kts 357°
2026-04-29 17:55 58.42798 65.69486 31314 ft 476 kts 358°
2026-04-29 17:56 58.48953 65.70616 32134 ft 473 kts 358°
2026-04-29 17:56 58.55351 65.71796 32958 ft 470 kts 358°
2026-04-29 17:56 58.61308 65.72891 33533 ft 469 kts 358°
2026-04-29 17:56 58.67645 65.74071 34063 ft 468 kts 358°
2026-04-29 17:57 58.73997 65.75252 34608 ft 465 kts 359°
2026-04-29 17:57 58.80428 65.76448 35118 ft 464 kts 359°
2026-04-29 17:57 58.86746 65.77625 35625 ft 463 kts 359°
2026-04-29 17:57 58.90854 65.78395 35919 ft 462 kts 359°
2026-04-29 17:58 58.99403 65.79997 36406 ft 465 kts 360°
2026-04-29 17:58 59.05560 65.81166 36766 ft 465 kts
2026-04-29 17:58 59.12026 65.82391 37029 ft 468 kts 360°
2026-04-29 17:59 59.43427 65.88419 37043 ft 472 kts
2026-04-29 17:59 59.91753 66.02738 36993 ft 485 kts 43°
2026-04-29 18:00 60.00063 66.20047 37036 ft 486 kts 34°
2026-04-29 18:00 60.60733 66.83284 37049 ft 481 kts 24°
2026-04-29 18:01 61.54068 67.84718 36951 ft 479 kts 27°
2026-04-29 18:01 61.85358 68.21015 37132 ft 479 kts 28°
2026-04-29 18:01 62.30631 68.69198 37136 ft 477 kts 24°
2026-04-29 18:01 62.42113 68.81036 36926 ft 476 kts 28°
2026-04-29 18:02 62.51402 68.92431 36995 ft 477 kts 27°
2026-04-29 18:03 62.93590 69.40884 37006 ft 474 kts 26°